Find Starlink 3978

NORAD ID: 52635 Int'l Des: 2022-052 Owner: SPXS Country: US Constellation: starlink operational
LEOCIRCULAR

Live Position

Loading 3D Globe...

About Starlink 3978

Description loading...

Upcoming Passes

Passes for default location (London). Set your location on the main map for personalized predictions.

Altitude History

Loading altitude history...

Two-Line Element Set

1 52635U 22052AP 26104.71432231 .00000100 00000-0 24372-4 0 9991
2 52635 53.2160 97.3988 0001305 87.7214 272.3928 15.08841946216572
Epoch: Apr 14, 2026 • Age: 10 hours

Current Status

Altitude 540.3 km
Velocity 7.60 km/s
Sub-Earth Point 25.85°N, 128.99°W
Launch Date May 14, 2022
Age 3.9 years
Type internet

Technical Details

Classification Payload
Mass 297.00 kg
Dry Mass 275.00 kg
Total Mass 297.00 kg
Length 0.20 m
Diameter 2.80 m
Span 9.00 m
Shape Box + pan
Manufacturer SPXS
Bus Type Starlink
Phase Status In Orbit
Owner/State SPXS/US

Most Searched